{"data":{"norad_id":61760,"intl_designator":"2024-199AB","name":"SITRO-AIS 41","alt_names":[],"object_type":"PAYLOAD","status":"ACTIVE","operator":null,"country":"CIS","launch_date":"2024-11-04","launch_site_code":"VOSTO","launch_vehicle":null,"mission":null,"orbit_class":"UNKNOWN","rcs_meters":null,"size_class":null,"mass_kg":null,"dimensions":null,"purposes":[],"wikipedia_slug":null,"has_3d_model":false,"image_url":null,"decayed_at":null,"tle_current":{"epoch":"2026-09-22T22:14:51.972288Z","epoch_age_seconds":90676,"freshness":"FRESH","line1":"1 61760U 24199AB  26265.92699042  .00309319  39173-4  82566-3 0  9999","line2":"2 61760  97.2676 150.1177 0004089 154.2234 205.9246 15.94510578153184","mean_motion":15.94510578,"eccentricity":0.0004089,"inclination_deg":97.2676,"raan_deg":150.1177,"arg_perigee_deg":154.2234,"mean_anomaly_deg":205.9246,"bstar":0.00082566,"rev_number":15318,"period_min":90.309843024447,"perigee_km":286.95198769807,"apogee_km":292.40492717916,"semimajor_km":6667.8154574386,"source":"CELESTRAK","updated_at":"2026-09-23T09:00:21.030093Z"}}}